| time (UTC) | temp F | wind direction | speed MPH | gust MPH | rain 1hr in | rain 24hr in | rain mn in | humidity % | barometer mb |
| 20260507083959 | 69 | 251 | 4.0 | 6.0 | 0.00 | 0.00 | 0.00 | ||
| 20260507083558 | 68 | 270 | 8.0 | 12.0 | 0.00 | 0.00 | 0.00 | ||
| 20260507083157 | 69 | 241 | 5.0 | 10.0 | 0.00 | 0.00 | 0.00 | ||
| 20260507082755 | 69 | 214 | 9.0 | 16.0 | 0.00 | 0.00 | 0.00 | ||
| 20260507082346 | 68 | 224 | 8.0 | 12.0 | 0.00 | 0.00 | 0.00 | ||
| 20260507081944 | 68 | 229 | 9.0 | 13.0 | 0.00 | 0.00 | 0.00 | ||
| 20260507081543 | 69 | 235 | 7.0 | 12.0 | 0.00 | 0.00 | 0.00 | ||
| 20260507081142 | 68 | 233 | 5.0 | 10.0 | 0.00 | 0.00 | 0.00 | ||
| 20260507080740 | 68 | 240 | 10.0 | 14.0 | 0.00 | 0.00 | 0.00 | ||
| 20260507080338 | 68 | 242 | 7.0 | 11.0 | 0.00 | 0.00 | 0.00 | ||
| 20260507075936 | 68 | 264 | 4.0 | 9.0 | 0.00 | 0.00 | 0.00 | ||
| 20260507075535 | 67 | 282 | 5.0 | 9.0 | 0.00 | 0.00 | 0.00 | ||
| 20260507075135 | 68 | 266 | 7.0 | 9.0 | 0.00 | 0.00 | 0.00 | ||
| 20260507074731 | 68 | 275 | 3.0 | 6.0 | 0.00 | 0.00 | 0.00 | ||
| 20260507074324 | 68 | 277 | 5.0 | 10.0 | 0.00 | 0.00 | 0.00 | ||
| 20260507073922 | 66 | 276 | 5.0 | 7.0 | 0.00 | 0.00 | 0.00 | ||
| 20260507073521 | 66 | 252 | 4.0 | 9.0 | 0.00 | 0.00 | 0.00 | ||
| 20260507073119 | 66 | 260 | 9.0 | 12.0 | 0.00 | 0.00 | 0.00 | ||
| 20260507072717 | 65 | 285 | 7.0 | 10.0 | 0.00 | 0.00 | 0.00 | ||
| 20260507072316 | 66 | 269 | 6.0 | 10.0 | 0.00 | 0.00 | 0.00 | ||
| 20260507071914 | 66 | 256 | 8.0 | 11.0 | 0.00 | 0.00 | 0.00 | ||
| 20260507071512 | 66 | 263 | 8.0 | 10.0 | 0.00 | 0.00 | 0.00 | ||
| 20260507071111 | 65 | 264 | 9.0 | 14.0 | 0.00 | 0.00 | 0.00 | ||
| 20260507070709 | 66 | 267 | 11.0 | 17.0 | 0.00 | 0.00 | 0.00 | ||
| 20260507070301 | 69 | 235 | 5.0 | 9.0 | 0.00 | 0.00 | 0.00 | ||
| 20260507065859 | 67 | 250 | 5.0 | 8.0 | 0.00 | 0.00 | 0.00 | ||
| 20260507065457 | 66 | 255 | 7.0 | 10.0 | 0.00 | 0.00 | 0.00 | ||
| 20260507065056 | 67 | 256 | 6.0 | 11.0 | 0.00 | 0.00 | 0.00 | ||
| 20260507064654 | 66 | 253 | 6.0 | 8.0 | 0.00 | 0.00 | 0.00 | ||
| 20260507064253 | 66 | 262 | 7.0 | 10.0 | 0.00 | 0.00 | 0.00 | ||
| 20260507063850 | 66 | 268 | 6.0 | 9.0 | 0.00 | 0.00 | 0.00 | ||
| 20260507063449 | 67 | 248 | 4.0 | 7.0 | 0.00 | 0.00 | 0.00 | ||
| 20260507063048 | 66 | 249 | 3.0 | 7.0 | 0.00 | 0.00 | 0.00 | ||
| 20260507062646 | 66 | 257 | 6.0 | 9.0 | 0.00 | 0.00 | 0.00 | ||
| 20260507062237 | 66 | 269 | 5.0 | 7.0 | 0.00 | 0.00 | 0.00 | ||
| 20260507061835 | 66 | 270 | 2.0 | 4.0 | 0.00 | 0.00 | 0.00 | ||
| 20260507061434 | 66 | 273 | 4.0 | 6.0 | 0.00 | 0.00 | 0.00 | ||
| 20260507061033 | 67 | 231 | 3.0 | 6.0 | 0.00 | 0.00 | 0.00 | ||
| 20260507060630 | 66 | 262 | 5.0 | 8.0 | 0.00 | 0.00 | 0.00 | ||
| 20260507060229 | 66 | 244 | 3.0 | 6.0 | 0.00 | 0.00 | 0.00 | ||
| 20260507055827 | 67 | 244 | 4.0 | 5.0 | 0.00 | 0.00 | 0.00 | ||
| 20260507055426 | 67 | 248 | 2.0 | 5.0 | 0.00 | 0.00 | 0.00 | ||
| 20260507055025 | 67 | 241 | 4.0 | 7.0 | 0.00 | 0.00 | 0.00 | ||
| 20260507054622 | 66 | 248 | 3.0 | 5.0 | 0.00 | 0.00 | 0.00 | ||
| 20260507054214 | 67 | 248 | 2.0 | 5.0 | 0.00 | 0.00 | 0.00 | ||
| 20260507053812 | 66 | 225 | 3.0 | 5.0 | 0.00 | 0.00 | 0.00 | ||
| 20260507053410 | 65 | 225 | 2.0 | 5.0 | 0.00 | 0.00 | 0.00 | ||
| 20260507053008 | 66 | 225 | 2.0 | 4.0 | 0.00 | 0.00 | 0.00 | ||
| 20260507052606 | 66 | 225 | 3.0 | 5.0 | 0.00 | 0.00 | 0.00 | ||
| 20260507052205 | 66 | 225 | 3.0 | 5.0 | 0.00 | 0.00 | 0.00 | ||
| 20260507051803 | 66 | 225 | 3.0 | 6.0 | 0.00 | 0.00 | 0.00 | ||
| 20260507051401 | 65 | 225 | 3.0 | 5.0 | 0.00 | 0.00 | 0.00 | ||
| 20260507051000 | 66 | 165 | 2.0 | 4.0 | 0.00 | 0.00 | 0.00 | ||
| 20260507050558 | 65 | 157 | 3.0 | 3.0 | 0.00 | 0.00 | 0.00 | ||
| 20260507050150 | 66 | 157 | 2.0 | 4.0 | 0.00 | 0.00 | 0.00 | ||
| 20260507045747 | 67 | 157 | 1.0 | 4.0 | 0.00 | 0.00 | 0.00 | ||
| 20260507045346 | 67 | 157 | 3.0 | 4.0 | 0.00 | 0.00 | 0.00 | ||
| 20260507044945 | 67 | 157 | 2.0 | 3.0 | 0.00 | 0.00 | 0.00 | ||
| 20260507044543 | 67 | 157 | 2.0 | 3.0 | 0.00 | 0.00 | 0.00 | ||
| 20260507044142 | 67 | 157 | 3.0 | 5.0 | 0.00 | 0.00 | 0.00 | ||
| 20260507043739 | 66 | 157 | 2.0 | 4.0 | 0.00 | 0.00 | 0.00 | ||
| 20260507043338 | 65 | 154 | 3.0 | 7.0 | 0.00 | 0.00 | 0.00 | ||
| 20260507042937 | 64 | 135 | 3.0 | 4.0 | 0.00 | 0.00 | 0.00 | ||
| 20260507042535 | 64 | 135 | 3.0 | 4.0 | 0.00 | 0.00 | 0.00 | ||
| 20260507042126 | 64 | 146 | 6.0 | 9.0 | 0.00 | 0.00 | 0.00 | ||
| 20260507041724 | 64 | 135 | 2.0 | 5.0 | 0.00 | 0.00 | 0.00 | ||
| 20260507041323 | 63 | 135 | 3.0 | 4.0 | 0.00 | 0.00 | 0.00 | ||
| 20260507040922 | 63 | 202 | 4.0 | 6.0 | 0.00 | 0.00 | 0.00 | ||
| 20260507040519 | 61 | 67 | 1.0 | 2.0 | 0.00 | 0.00 | 0.00 | ||
| 20260507040118 | 61 | 67 | 0.0 | 1.0 | 0.00 | 0.00 | 0.00 | ||
| 20260507035716 | 61 | 67 | 0.0 | 0.0 | 0.00 | 0.00 | 0.00 | ||
| 20260507035315 | 61 | 67 | 2.0 | 4.0 | 0.00 | 0.00 | 0.00 | ||
| 20260507034913 | 61 | 21 | 5.0 | 7.0 | 0.00 | 0.00 | 0.00 | ||
| 20260507034511 | 61 | 7 | 4.0 | 5.0 | 0.00 | 0.00 | 0.00 | ||
| 20260507034103 | 61 | 45 | 4.0 | 6.0 | 0.00 | 0.00 | 0.00 | ||
| 20260507033701 | 61 | 45 | 4.0 | 6.0 | 0.00 | 0.00 | 0.00 | ||
| 20260507033300 | 61 | 29 | 7.0 | 8.0 | 0.00 | 0.00 | 0.00 | ||
| 20260507032858 | 61 | 45 | 2.0 | 4.0 | 0.00 | 0.00 | 0.00 | ||
| 20260507032456 | 61 | 41 | 3.0 | 7.0 | 0.00 | 0.00 | 0.00 | ||
| 20260507032055 | 61 | 14 | 5.0 | 8.0 | 0.00 | 0.00 | 0.00 | ||
| 20260507031653 | 61 | 0 | 5.0 | 7.0 | 0.00 | 0.00 | 0.00 | ||
| 20260507031251 | 61 | 135 | 2.0 | 4.0 | 0.00 | 0.00 | 0.00 | ||
| 20260507030850 | 61 | 135 | 3.0 | 4.0 | 0.00 | 0.00 | 0.00 | ||
| 20260507030448 | 62 | 135 | 1.0 | 3.0 | 0.00 | 0.00 | 0.00 | ||
| 20260507030040 | 62 | 135 | 0.0 | 0.0 | 0.00 | 0.00 | 0.00 | ||
| 20260507025638 | 62 | 135 | 0.0 | 1.0 | 0.00 | 0.00 | 0.00 | ||
| 20260507025236 | 63 | 135 | 2.0 | 4.0 | 0.00 | 0.00 | 0.00 | ||
| 20260507024835 | 63 | 135 | 3.0 | 6.0 | 0.00 | 0.00 | 0.00 | ||
| 20260507024434 | 64 | 145 | 3.0 | 4.0 | 0.00 | 0.00 | 0.00 | ||
| 20260507024031 | 64 | 157 | 1.0 | 4.0 | 0.00 | 0.00 | 0.00 | ||
| 20260507023630 | 65 | 157 | 2.0 | 4.0 | 0.00 | 0.00 | 0.00 | ||
| 20260507023228 | 65 | 157 | 4.0 | 6.0 | 0.00 | 0.00 | 0.00 | ||
| 20260507022828 | 65 | 157 | 3.0 | 6.0 | 0.00 | 0.00 | 0.00 | ||
| 20260507022425 | 65 | 157 | 3.0 | 6.0 | 0.00 | 0.00 | 0.00 | ||
| 20260507022016 | 65 | 151 | 5.0 | 9.0 | 0.00 | 0.00 | 0.00 | ||
| 20260507021614 | 65 | 137 | 3.0 | 7.0 | 0.00 | 0.00 | 0.00 | ||
| 20260507021213 | 65 | 151 | 4.0 | 8.0 | 0.00 | 0.00 | 0.00 | ||
| 20260507020812 | 65 | 136 | 4.0 | 7.0 | 0.00 | 0.00 | 0.00 | ||
| 20260507020409 | 65 | 157 | 3.0 | 7.0 | 0.00 | 0.00 | 0.00 | ||
| 20260507020009 | 65 | 153 | 3.0 | 6.0 | 0.00 | 0.00 | 0.00 | ||
| 20260507015606 | 65 | 152 | 4.0 | 8.0 | 0.00 | 0.00 | 0.00 | ||
| 20260507015205 | 65 | 157 | 5.0 | 8.0 | 0.00 | 0.00 | 0.00 | ||
| 20260507014803 | 65 | 157 | 4.0 | 9.0 | 0.00 | 0.00 | 0.00 | ||
| 20260507014401 | 65 | 158 | 6.0 | 9.0 | 0.00 | 0.00 | 0.00 | ||
| 20260507013954 | 65 | 167 | 9.0 | 12.0 | 0.00 | 0.00 | 0.00 | ||
| 20260507013552 | 66 | 171 | 10.0 | 14.0 | 0.00 | 0.00 | 0.00 | ||
| 20260507013150 | 66 | 172 | 9.0 | 13.0 | 0.00 | 0.00 | 0.00 | ||
| 20260507012749 | 66 | 175 | 7.0 | 10.0 | 0.00 | 0.00 | 0.00 | ||
| 20260507012347 | 66 | 186 | 14.0 | 19.0 | 0.00 | 0.00 | 0.00 | ||
| 20260507011946 | 66 | 182 | 14.0 | 20.0 | 0.00 | 0.00 | 0.00 | ||
| 20260507011544 | 66 | 176 | 11.0 | 15.0 | 0.00 | 0.00 | 0.00 | ||
| 20260507011142 | 66 | 164 | 10.0 | 12.0 | 0.00 | 0.00 | 0.00 | ||
| 20260507010741 | 66 | 182 | 11.0 | 15.0 | 0.00 | 0.00 | 0.00 | ||
| 20260507010339 | 66 | 182 | 12.0 | 16.0 | 0.00 | 0.00 | 0.00 | ||
| 20260507005931 | 66 | 199 | 12.0 | 17.0 | 0.00 | 0.00 | 0.00 | ||
| 20260507005528 | 66 | 200 | 14.0 | 22.0 | 0.00 | 0.00 | 0.00 | ||
| 20260507005127 | 66 | 197 | 8.0 | 11.0 | 0.00 | 0.00 | 0.00 | ||
| 20260507004725 | 66 | 203 | 7.0 | 11.0 | 0.00 | 0.00 | 0.00 | ||
| 20260507004323 | 67 | 227 | 5.0 | 9.0 | 0.00 | 0.00 | 0.00 | ||
| 20260507003920 | 66 | 194 | 8.0 | 13.0 | 0.00 | 0.00 | 0.00 | ||
| 20260507003519 | 66 | 162 | 7.0 | 8.0 | 0.00 | 0.00 | 0.00 | ||
| 20260507003118 | 66 | 174 | 8.0 | 12.0 | 0.00 | 0.00 | 0.00 | ||
| 20260507002717 | 66 | 186 | 12.0 | 22.0 | 0.00 | 0.00 | 0.00 | ||
| 20260507002313 | 66 | 163 | 11.0 | 16.0 | 0.00 | 0.00 | 0.00 | ||
| 20260507001906 | 66 | 157 | 12.0 | 17.0 | 0.00 | 0.00 | 0.00 | ||
| 20260507001504 | 66 | 152 | 10.0 | 15.0 | 0.00 | 0.00 | 0.00 | ||
| 20260507001103 | 66 | 148 | 9.0 | 13.0 | 0.00 | 0.00 | 0.00 | ||
| 20260507000702 | 67 | 158 | 8.0 | 12.0 | 0.00 | 0.00 | 0.00 | ||
| 20260507000259 | 67 | 178 | 8.0 | 12.0 | 0.00 | 0.00 | 0.00 | ||
| 20260506235858 | 67 | 200 | 9.0 | 12.0 | 0.00 | 0.00 | 0.00 | ||
| 20260506235456 | 68 | 203 | 11.0 | 18.0 | 0.00 | 0.00 | 0.00 | ||
| 20260506235055 | 67 | 181 | 9.0 | 16.0 | 0.00 | 0.00 | 0.00 | ||
| 20260506234653 | 67 | 198 | 7.0 | 11.0 | 0.00 | 0.00 | 0.00 | ||
| 20260506234251 | 67 | 196 | 8.0 | 14.0 | 0.00 | 0.00 | 0.00 | ||
| 20260506233843 | 68 | 202 | 4.0 | 7.0 | 0.00 | 0.00 | 0.00 | ||
| 20260506233441 | 68 | 168 | 8.0 | 10.0 | 0.00 | 0.00 | 0.00 | ||
| 20260506233039 | 68 | 194 | 10.0 | 19.0 | 0.00 | 0.00 | 0.00 | ||
| 20260506232638 | 68 | 198 | 7.0 | 10.0 | 0.00 | 0.00 | 0.00 | ||
| 20260506232236 | 68 | 202 | 5.0 | 8.0 | 0.00 | 0.00 | 0.00 | ||
| 20260506231835 | 68 | 188 | 3.0 | 5.0 | 0.00 | 0.00 | 0.00 | ||
| 20260506231432 | 68 | 200 | 6.0 | 8.0 | 0.00 | 0.00 | 0.00 | ||
| 20260506231031 | 68 | 196 | 7.0 | 11.0 | 0.00 | 0.00 | 0.00 | ||
| 20260506230630 | 68 | 200 | 5.0 | 7.0 | 0.00 | 0.00 | 0.00 | ||
| 20260506230229 | 68 | 164 | 7.0 | 9.0 | 0.00 | 0.00 | 0.00 | ||
| 20260506225821 | 68 | 163 | 6.0 | 9.0 | 0.00 | 0.00 | 0.00 | ||
| 20260506225418 | 68 | 155 | 9.0 | 12.0 | 0.00 | 0.00 | 0.00 | ||
| 20260506225017 | 68 | 176 | 9.0 | 11.0 | 0.00 | 0.00 | 0.00 | ||
| 20260506224616 | 68 | 173 | 9.0 | 12.0 | 0.00 | 0.00 | 0.00 | ||
| 20260506224214 | 68 | 187 | 8.0 | 10.0 | 0.00 | 0.00 | 0.00 | ||
| 20260506223812 | 68 | 182 | 10.0 | 14.0 | 0.00 | 0.00 | 0.00 | ||
| 20260506223410 | 68 | 191 | 10.0 | 15.0 | 0.00 | 0.00 | 0.00 | ||
| 20260506223009 | 68 | 165 | 12.0 | 14.0 | 0.00 | 0.00 | 0.00 | ||
| 20260506222608 | 68 | 172 | 15.0 | 19.0 | 0.00 | 0.00 | 0.00 | ||
| 20260506222205 | 68 | 168 | 10.0 | 15.0 | 0.00 | 0.00 | 0.00 | ||
| 20260506221757 | 68 | 163 | 13.0 | 18.0 | 0.00 | 0.00 | 0.00 | ||
| 20260506221355 | 68 | 165 | 13.0 | 18.0 | 0.00 | 0.00 | 0.00 | ||
| 20260506220954 | 68 | 162 | 9.0 | 13.0 | 0.00 | 0.00 | 0.00 | ||
| 20260506220552 | 68 | 157 | 10.0 | 18.0 | 0.00 | 0.00 | 0.00 | ||
| 20260506220150 | 68 | 149 | 11.0 | 16.0 | 0.00 | 0.00 | 0.00 | ||
| 20260506215749 | 68 | 178 | 13.0 | 18.0 | 0.00 | 0.00 | 0.00 | ||
| 20260506215347 | 69 | 175 | 8.0 | 14.0 | 0.00 | 0.00 | 0.00 | ||
| 20260506214946 | 69 | 201 | 7.0 | 12.0 | 0.00 | 0.00 | 0.00 | ||
| 20260506214617 | 69 | 185 | 8.0 | 12.0 | 0.00 | 0.00 | 0.00 | ||
| 20260506214544 | 69 | 185 | 8.0 | 12.0 | 0.00 | 0.00 | 0.00 | ||
| 20260506214142 | 69 | 187 | 9.0 | 12.0 | 0.00 | 0.00 | 0.00 | ||
| 20260506213734 | 69 | 195 | 6.0 | 11.0 | 0.00 | 0.00 | 0.00 | ||
| 20260506213333 | 69 | 182 | 8.0 | 12.0 | 0.00 | 0.00 | 0.00 | ||
| 20260506212930 | 69 | 177 | 11.0 | 16.0 | 0.00 | 0.00 | 0.00 | ||
| 20260506212529 | 69 | 197 | 11.0 | 15.0 | 0.00 | 0.00 | 0.00 | ||
| 20260506212128 | 69 | 170 | 10.0 | 14.0 | 0.00 | 0.00 | 0.00 | ||
| 20260506211727 | 69 | 162 | 11.0 | 14.0 | 0.00 | 0.00 | 0.00 | ||
| 20260506210923 | 70 | 177 | 11.0 | 19.0 | 0.00 | 0.00 | 0.00 | ||
| 20260506210522 | 70 | 160 | 6.0 | 9.0 | 0.00 | 0.00 | 0.00 | ||
| 20260506210120 | 70 | 180 | 7.0 | 10.0 | 0.00 | 0.00 | 0.00 | ||
| 20260506205711 | 70 | 175 | 10.0 | 14.0 | 0.00 | 0.00 | 0.00 | ||
| 20260506204908 | 70 | 180 | 9.0 | 12.0 | 0.00 | 0.00 | 0.00 | ||
| 20260506204507 | 70 | 187 | 9.0 | 12.0 | 0.00 | 0.00 | 0.00 | ||
| 20260506204105 | 70 | 185 | 11.0 | 16.0 | 0.00 | 0.00 | 0.00 | ||
| 20260506203703 | 70 | 181 | 16.0 | 27.0 | 0.00 | 0.00 | 0.00 | ||
| 20260506203301 | 70 | 172 | 12.0 | 15.0 | 0.00 | 0.00 | 0.00 | ||
| 20260506202900 | 70 | 173 | 14.0 | 20.0 | 0.00 | 0.00 | 0.00 | ||
| 20260506202459 | 70 | 170 | 13.0 | 17.0 | 0.00 | 0.00 | 0.00 | ||
| 20260506202056 | 70 | 170 | 11.0 | 16.0 | 0.00 | 0.00 | 0.00 | ||
| 20260506201648 | 70 | 192 | 11.0 | 15.0 | 0.00 | 0.00 | 0.00 | ||
| 20260506201246 | 70 | 181 | 15.0 | 20.0 | 0.00 | 0.00 | 0.00 | ||
| 20260506200845 | 70 | 172 | 15.0 | 21.0 | 0.00 | 0.00 | 0.00 | ||
| 20260506200443 | 70 | 185 | 10.0 | 14.0 | 0.00 | 0.00 | 0.00 | ||
| 20260506200041 | 70 | 178 | 13.0 | 18.0 | 0.00 | 0.00 | 0.00 | ||
| 20260506195640 | 71 | 188 | 11.0 | 16.0 | 0.00 | 0.00 | 0.00 | ||
| 20260506195239 | 71 | 186 | 11.0 | 16.0 | 0.00 | 0.00 | 0.00 | ||
| 20260506194837 | 70 | 186 | 10.0 | 17.0 | 0.00 | 0.00 | 0.00 | ||
| 20260506194436 | 71 | 189 | 11.0 | 16.0 | 0.00 | 0.00 | 0.00 | ||
| 20260506193626 | 71 | 196 | 14.0 | 20.0 | 0.00 | 0.00 | 0.00 | ||
| 20260506193224 | 71 | 188 | 13.0 | 18.0 | 0.00 | 0.00 | 0.00 | ||
| 20260506192822 | 70 | 177 | 10.0 | 17.0 | 0.00 | 0.00 | 0.00 | ||
| 20260506192421 | 70 | 164 | 6.0 | 12.0 | 0.00 | 0.00 | 0.00 | ||
| 20260506192019 | 71 | 157 | 6.0 | 9.0 | 0.00 | 0.00 | 0.00 | ||
| 20260506191618 | 71 | 182 | 9.0 | 12.0 | 0.00 | 0.00 | 0.00 | ||
| 20260506191215 | 70 | 144 | 7.0 | 12.0 | 0.00 | 0.00 | 0.00 | ||
| 20260506190813 | 70 | 148 | 8.0 | 11.0 | 0.00 | 0.00 | 0.00 | ||
| 20260506190412 | 70 | 120 | 4.0 | 7.0 | 0.00 | 0.00 | 0.00 | ||
| 20260506190010 | 70 | 137 | 4.0 | 9.0 | 0.00 | 0.00 | 0.00 | ||
| 20260506185601 | 71 | 163 | 4.0 | 7.0 | 0.00 | 0.00 | 0.00 | ||
| 20260506185159 | 71 | 183 | 5.0 | 7.0 | 0.00 | 0.00 | 0.00 | ||
| 20260506184758 | 71 | 160 | 5.0 | 8.0 | 0.00 | 0.00 | 0.00 | ||
| 20260506184357 | 71 | 176 | 7.0 | 13.0 | 0.00 | 0.00 | 0.00 | ||
| 20260506183954 | 71 | 183 | 9.0 | 12.0 | 0.00 | 0.00 | 0.00 | ||
| 20260506183553 | 71 | 177 | 7.0 | 11.0 | 0.00 | 0.00 | 0.00 | ||
| 20260506183151 | 71 | 170 | 11.0 | 18.0 | 0.00 | 0.00 | 0.00 | ||
| 20260506182750 | 71 | 160 | 5.0 | 7.0 | 0.00 | 0.00 | 0.00 | ||
| 20260506182349 | 71 | 165 | 8.0 | 12.0 | 0.00 | 0.00 | 0.00 | ||
| 20260506181946 | 72 | 159 | 10.0 | 18.0 | 0.00 | 0.00 | 0.00 | ||
| 20260506181538 | 72 | 159 | 9.0 | 13.0 | 0.00 | 0.00 | 0.00 | ||
| 20260506181136 | 72 | 169 | 15.0 | 22.0 | 0.00 | 0.00 | 0.00 | ||
| 20260506180735 | 72 | 153 | 12.0 | 18.0 | 0.00 | 0.00 | 0.00 | ||
| 20260506180333 | 72 | 163 | 9.0 | 15.0 | 0.00 | 0.00 | 0.00 | ||
| 20260506175931 | 72 | 164 | 14.0 | 26.0 | 0.00 | 0.00 | 0.00 | ||
| 20260506175530 | 72 | 158 | 12.0 | 19.0 | 0.00 | 0.00 | 0.00 | ||
| 20260506175129 | 73 | 168 | 11.0 | 19.0 | 0.00 | 0.00 | 0.00 | ||
| 20260506174726 | 73 | 173 | 9.0 | 13.0 | 0.00 | 0.00 | 0.00 | ||
| 20260506174325 | 73 | 158 | 8.0 | 11.0 | 0.00 | 0.00 | 0.00 | ||
| 20260506173924 | 73 | 155 | 7.0 | 10.0 | 0.00 | 0.00 | 0.00 | ||
| 20260506173516 | 73 | 169 | 10.0 | 12.0 | 0.00 | 0.00 | 0.00 | ||
| 20260506173113 | 73 | 176 | 8.0 | 16.0 | 0.00 | 0.00 | 0.00 | ||
| 20260506172712 | 73 | 181 | 9.0 | 13.0 | 0.00 | 0.00 | 0.00 | ||
| 20260506172311 | 74 | 169 | 12.0 | 19.0 | 0.00 | 0.00 | 0.00 | ||
| 20260506171909 | 74 | 175 | 9.0 | 14.0 | 0.00 | 0.00 | 0.00 | ||
| 20260506171508 | 74 | 168 | 10.0 | 14.0 | 0.00 | 0.00 | 0.00 | ||
| 20260506171105 | 74 | 148 | 11.0 | 18.0 | 0.00 | 0.00 | 0.00 | ||
| 20260506170704 | 74 | 161 | 10.0 | 13.0 | 0.00 | 0.00 | 0.00 | ||
| 20260506170303 | 74 | 166 | 10.0 | 18.0 | 0.00 | 0.00 | 0.00 | ||
| 20260506165901 | 74 | 158 | 9.0 | 12.0 | 0.00 | 0.00 | 0.00 | ||
| 20260506165452 | 74 | 177 | 13.0 | 17.0 | 0.00 | 0.00 | 0.00 | ||
| 20260506165050 | 74 | 172 | 13.0 | 18.0 | 0.00 | 0.00 | 0.00 | ||
| 20260506164649 | 74 | 177 | 13.0 | 17.0 | 0.00 | 0.00 | 0.00 | ||
| 20260506164248 | 74 | 178 | 17.0 | 23.0 | 0.00 | 0.00 | 0.00 | ||
| 20260506163845 | 75 | 185 | 13.0 | 19.0 | 0.00 | 0.00 | 0.00 | ||
| 20260506163444 | 76 | 187 | 12.0 | 16.0 | 0.00 | 0.00 | 0.00 | ||
| 20260506163042 | 76 | 181 | 15.0 | 23.0 | 0.00 | 0.00 | 0.00 | ||
| 20260506162641 | 76 | 175 | 12.0 | 19.0 | 0.00 | 0.00 | 0.00 | ||
| 20260506162239 | 75 | 170 | 10.0 | 16.0 | 0.00 | 0.00 | 0.00 | ||
| 20260506161837 | 76 | 157 | 12.0 | 16.0 | 0.00 | 0.00 | 0.00 | ||
| 20260506161429 | 75 | 168 | 13.0 | 19.0 | 0.00 | 0.00 | 0.00 | ||
| 20260506161028 | 75 | 178 | 15.0 | 20.0 | 0.00 | 0.00 | 0.00 | ||
| 20260506160627 | 75 | 177 | 16.0 | 23.0 | 0.00 | 0.00 | 0.00 | ||
| 20260506160225 | 75 | 160 | 14.0 | 24.0 | 0.00 | 0.00 | 0.00 | ||
| 20260506155823 | 75 | 178 | 14.0 | 21.0 | 0.00 | 0.00 | 0.00 | ||
| 20260506155422 | 77 | 165 | 13.0 | 19.0 | 0.00 | 0.00 | 0.00 | ||
| 20260506155020 | 78 | 140 | 11.0 | 14.0 | 0.00 | 0.00 | 0.00 | ||
| 20260506154618 | 79 | 164 | 12.0 | 19.0 | 0.00 | 0.00 | 0.00 | ||
| 20260506154217 | 79 | 166 | 7.0 | 10.0 | 0.00 | 0.00 | 0.00 | ||
| 20260506153815 | 77 | 202 | 10.0 | 14.0 | 0.00 | 0.00 | 0.00 | ||
| 20260506153407 | 77 | 175 | 13.0 | 17.0 | 0.00 | 0.00 | 0.00 | ||
| 20260506153004 | 78 | 180 | 14.0 | 17.0 | 0.00 | 0.00 | 0.00 | ||
| 20260506152603 | 79 | 178 | 11.0 | 18.0 | 0.00 | 0.00 | 0.00 | ||
| 20260506152202 | 78 | 170 | 10.0 | 14.0 | 0.00 | 0.00 | 0.00 | ||
| 20260506151800 | 77 | 177 | 11.0 | 15.0 | 0.00 | 0.00 | 0.00 | ||
| 20260506151358 | 77 | 178 | 11.0 | 17.0 | 0.00 | 0.00 | 0.00 | ||
| 20260506150956 | 77 | 180 | 13.0 | 20.0 | 0.00 | 0.00 | 0.00 | ||
| 20260506150555 | 77 | 203 | 12.0 | 18.0 | 0.00 | 0.00 | 0.00 | ||
| 20260506150154 | 77 | 188 | 10.0 | 16.0 | 0.00 | 0.00 | 0.00 | ||
| 20260506145752 | 77 | 185 | 12.0 | 19.0 | 0.00 | 0.00 | 0.00 | ||
| 20260506145343 | 78 | 155 | 9.0 | 14.0 | 0.00 | 0.00 | 0.00 | ||
| 20260506144941 | 78 | 173 | 9.0 | 14.0 | 0.00 | 0.00 | 0.00 | ||
| 20260506144540 | 79 | 186 | 8.0 | 11.0 | 0.00 | 0.00 | 0.00 | ||
| 20260506144140 | 77 | 208 | 9.0 | 16.0 | 0.00 | 0.00 | 0.00 | ||
| 20260506143737 | 78 | 193 | 8.0 | 12.0 | 0.00 | 0.00 | 0.00 | ||
| 20260506143336 | 78 | 201 | 9.0 | 16.0 | 0.00 | 0.00 | 0.00 | ||
| 20260506142934 | 79 | 194 | 6.0 | 10.0 | 0.00 | 0.00 | 0.00 | ||
| 20260506142533 | 78 | 207 | 11.0 | 15.0 | 0.00 | 0.00 | 0.00 | ||
| 20260506142131 | 79 | 248 | 4.0 | 8.0 | 0.00 | 0.00 | 0.00 | ||
| 20260506141729 | 78 | 225 | 7.0 | 9.0 | 0.00 | 0.00 | 0.00 | ||
| 20260506141321 | 77 | 214 | 7.0 | 10.0 | 0.00 | 0.00 | 0.00 | ||
| 20260506140919 | 78 | 202 | 4.0 | 9.0 | 0.00 | 0.00 | 0.00 | ||
| 20260506140517 | 76 | 216 | 8.0 | 13.0 | 0.00 | 0.00 | 0.00 | ||
| 20260506140116 | 76 | 223 | 8.0 | 10.0 | 0.00 | 0.00 | 0.00 | ||
| 20260506135714 | 77 | 217 | 7.0 | 12.0 | 0.00 | 0.00 | 0.00 | ||
| 20260506135313 | 77 | 219 | 6.0 | 8.0 | 0.00 | 0.00 | 0.00 | ||
| 20260506134911 | 77 | 207 | 8.0 | 12.0 | 0.00 | 0.00 | 0.00 | ||
| 20260506134509 | 77 | 186 | 10.0 | 13.0 | 0.00 | 0.00 | 0.00 | ||
| 20260506134108 | 76 | 195 | 8.0 | 14.0 | 0.00 | 0.00 | 0.00 | ||
| 20260506133706 | 76 | 201 | 8.0 | 10.0 | 0.00 | 0.00 | 0.00 | ||
| 20260506133258 | 76 | 200 | 9.0 | 13.0 | 0.00 | 0.00 | 0.00 | ||
| 20260506132855 | 77 | 212 | 6.0 | 10.0 | 0.00 | 0.00 | 0.00 | ||
| 20260506132454 | 77 | 213 | 9.0 | 15.0 | 0.00 | 0.00 | 0.00 | ||
| 20260506132053 | 77 | 236 | 6.0 | 10.0 | 0.00 | 0.00 | 0.00 | ||
| 20260506131652 | 77 | 223 | 7.0 | 10.0 | 0.00 | 0.00 | 0.00 | ||
| 20260506131249 | 79 | 205 | 6.0 | 11.0 | 0.00 | 0.00 | 0.00 | ||
| 20260506130847 | 78 | 212 | 8.0 | 13.0 | 0.00 | 0.00 | 0.00 | ||
| 20260506130447 | 78 | 255 | 7.0 | 10.0 | 0.00 | 0.00 | 0.00 | ||
| 20260506130046 | 78 | 212 | 7.0 | 10.0 | 0.00 | 0.00 | 0.00 | ||
| 20260506125643 | 79 | 148 | 4.0 | 7.0 | 0.00 | 0.00 | 0.00 | ||
| 20260506125235 | 79 | 136 | 6.0 | 8.0 | 0.00 | 0.00 | 0.00 | ||
| 20260506124833 | 81 | 146 | 6.0 | 10.0 | 0.00 | 0.00 | 0.00 | ||
| 20260506124432 | 81 | 189 | 3.0 | 5.0 | 0.00 | 0.00 | 0.00 | ||
| 20260506124031 | 79 | 200 | 3.0 | 6.0 | 0.00 | 0.00 | 0.00 | ||
| 20260506123628 | 79 | 180 | 4.0 | 7.0 | 0.00 | 0.00 | 0.00 | ||
| 20260506123227 | 77 | 201 | 5.0 | 9.0 | 0.00 | 0.00 | 0.00 | ||
| 20260506122825 | 76 | 203 | 5.0 | 10.0 | 0.00 | 0.00 | 0.00 | ||
| 20260506122424 | 77 | 215 | 8.0 | 10.0 | 0.00 | 0.00 | 0.00 | ||
| 20260506122022 | 77 | 224 | 6.0 | 9.0 | 0.00 | 0.00 | 0.00 | ||
| 20260506121620 | 76 | 217 | 8.0 | 11.0 | 0.00 | 0.00 | 0.00 | ||
| 20260506121212 | 76 | 205 | 9.0 | 14.0 | 0.00 | 0.00 | 0.00 | ||
| 20260506120810 | 76 | 219 | 8.0 | 12.0 | 0.00 | 0.00 | 0.00 | ||
| 20260506120408 | 76 | 206 | 8.0 | 13.0 | 0.00 | 0.00 | 0.00 | ||
| 20260506120007 | 76 | 220 | 8.0 | 11.0 | 0.00 | 0.00 | 0.00 | ||
| 20260506115605 | 77 | 228 | 7.0 | 10.0 | 0.00 | 0.00 | 0.00 | ||
| 20260506115204 | 77 | 233 | 11.0 | 15.0 | 0.00 | 0.00 | 0.00 | ||
| 20260506114801 | 77 | 225 | 5.0 | 8.0 | 0.00 | 0.00 | 0.00 | ||
| 20260506114400 | 77 | 213 | 8.0 | 13.0 | 0.00 | 0.00 | 0.00 | ||
| 20260506113959 | 77 | 219 | 8.0 | 13.0 | 0.00 | 0.00 | 0.00 | ||
| 20260506113557 | 77 | 247 | 6.0 | 9.0 | 0.00 | 0.00 | 0.00 | ||
| 20260506113149 | 76 | 230 | 9.0 | 14.0 | 0.00 | 0.00 | 0.00 | ||
| 20260506112746 | 77 | 233 | 9.0 | 14.0 | 0.00 | 0.00 | 0.00 | ||
| 20260506112345 | 77 | 232 | 7.0 | 14.0 | 0.00 | 0.00 | 0.00 | ||
| 20260506111944 | 76 | 273 | 9.0 | 16.0 | 0.00 | 0.00 | 0.00 | ||
| 20260506111542 | 77 | 283 | 9.0 | 18.0 | 0.00 | 0.00 | 0.00 | ||
| 20260506111140 | 77 | 263 | 7.0 | 12.0 | 0.00 | 0.00 | 0.00 | ||
| 20260506110738 | 76 | 251 | 8.0 | 13.0 | 0.00 | 0.00 | 0.00 | ||
| 20260506110337 | 77 | 237 | 7.0 | 9.0 | 0.00 | 0.00 | 0.00 | ||
| 20260506105936 | 75 | 227 | 9.0 | 14.0 | 0.00 | 0.00 | 0.00 | ||
| 20260506105533 | 76 | 252 | 3.0 | 5.0 | 0.00 | 0.00 | 0.00 | ||
| 20260506105125 | 76 | 228 | 7.0 | 13.0 | 0.00 | 0.00 | 0.00 | ||
| 20260506104723 | 75 | 236 | 7.0 | 10.0 | 0.00 | 0.00 | 0.00 | ||
| 20260506104322 | 75 | 231 | 8.0 | 12.0 | 0.00 | 0.00 | 0.00 | ||
| 20260506103920 | 74 | 255 | 8.0 | 10.0 | 0.00 | 0.00 | 0.00 | ||
| 20260506103518 | 75 | 227 | 4.0 | 7.0 | 0.00 | 0.00 | 0.00 | ||
| 20260506103117 | 75 | 222 | 7.0 | 13.0 | 0.00 | 0.00 | 0.00 | ||
| 20260506102716 | 75 | 249 | 5.0 | 9.0 | 0.00 | 0.00 | 0.00 | ||
| 20260506102315 | 74 | 282 | 8.0 | 10.0 | 0.00 | 0.00 | 0.00 | ||
| 20260506101912 | 76 | 257 | 4.0 | 8.0 | 0.00 | 0.00 | 0.00 | ||
| 20260506101511 | 75 | 250 | 6.0 | 10.0 | 0.00 | 0.00 | 0.00 | ||
| 20260506101103 | 75 | 267 | 6.0 | 9.0 | 0.00 | 0.00 | 0.00 | ||
| 20260506100701 | 75 | 258 | 8.0 | 10.0 | 0.00 | 0.00 | 0.00 | ||
| 20260506100259 | 76 | 279 | 7.0 | 12.0 | 0.00 | 0.00 | 0.00 | ||
| 20260506095858 | 75 | 236 | 5.0 | 9.0 | 0.00 | 0.00 | 0.00 | ||
| 20260506095456 | 74 | 233 | 7.0 | 12.0 | 0.00 | 0.00 | 0.00 | ||
| 20260506095055 | 75 | 211 | 7.0 | 11.0 | 0.00 | 0.00 | 0.00 | ||
| 20260506094652 | 75 | 241 | 6.0 | 9.0 | 0.00 | 0.00 | 0.00 | ||
| 20260506094251 | 75 | 266 | 6.0 | 12.0 | 0.00 | 0.00 | 0.00 | ||
| 20260506093850 | 77 | 255 | 5.0 | 8.0 | 0.00 | 0.00 | 0.00 | ||
| 20260506093448 | 74 | 256 | 9.0 | 14.0 | 0.00 | 0.00 | 0.00 | ||
| 20260506093039 | 74 | 270 | 8.0 | 10.0 | 0.00 | 0.00 | 0.00 | ||
| 20260506092637 | 73 | 269 | 6.0 | 11.0 | 0.00 | 0.00 | 0.00 | ||
| 20260506092236 | 73 | 212 | 7.0 | 11.0 | 0.00 | 0.00 | 0.00 | ||
| 20260506091835 | 74 | 223 | 7.0 | 10.0 | 0.00 | 0.00 | 0.00 | ||
| 20260506091433 | 74 | 271 | 9.0 | 13.0 | 0.00 | 0.00 | 0.00 | ||
| 20260506091031 | 74 | 256 | 8.0 | 13.0 | 0.00 | 0.00 | 0.00 | ||
| 20260506090629 | 74 | 250 | 6.0 | 11.0 | 0.00 | 0.00 | 0.00 | ||
| 20260506090228 | 73 | 243 | 9.0 | 14.0 | 0.00 | 0.00 | 0.00 | ||
| 20260506085827 | 73 | 211 | 7.0 | 14.0 | 0.00 | 0.00 | 0.00 | ||
| 20260506085423 | 73 | 211 | 7.0 | 11.0 | 0.00 | 0.00 | 0.00 | ||
| 20260506085016 | 73 | 233 | 8.0 | 13.0 | 0.00 | 0.00 | 0.00 | ||
| 20260506084614 | 73 | 277 | 8.0 | 11.0 | 0.00 | 0.00 | 0.00 | ||
| 20260506084212 | 72 | 255 | 9.0 | 16.0 | 0.00 | 0.00 | 0.00 |